#timestamp,LO_Frequency,Hit,StdDev 
1624766415.9,286047003.8,N
1624766435.7,286047003.3,N
1624766455.5,286047003.3,N
1624766475.4,286047005.7,Y
1624766495.2,286047001.4,P
1624766515.0,286047002.6,P
1624766516.0,286047002.6,P
1624766535.8,286047001.7,N
1624766555.6,286047003.6,Y
1624766575.5,286047002.0,P
1624766595.3,286047002.3,P
1624766615.1,286047001.5,P
1624766635.9,286047002.4,Y
1624766655.7,286047000.4,P
1624766705.6,286047000.4,E
1624766715.5,286047000.2,N
1624766735.3,286046999.7,P
1624766755.2,286046999.9,N
1624766775.0,286047000.4,N
1624766775.9,286047000.4,N
1624766795.8,286046999.9,N
1624766815.6,286047000.0,N
1624766835.4,286047000.1,N
1624766855.3,286046999.8,N
1624766875.1,286047000.2,N
1624766895.8,286047000.5,N
1624766915.7,286047000.3,N
1624766935.5,286047001.6,Y
1624766955.4,286047001.9,P
1624766975.2,286047002.3,N
1624766995.0,286047002.0,N
1624766995.9,286047002.0,N
1624767015.8,286046999.7,N
1624767035.6,286046999.8,N
1624767055.4,286047001.4,N
1624767075.3,286047001.4,N
1624767095.1,286047002.8,N
1624767115.9,286047000.1,N
1624767135.7,286047002.7,N
1624767155.5,286046999.7,N
1624767175.4,286046999.7,N
1624767195.2,286047001.9,N
1624767215.0,286047000.1,N
1624767216.0,286047000.1,N
1624767235.8,286047002.6,N
1624767255.6,286047001.6,N
1624767275.5,286047002.0,N
1624767295.3,286047001.5,N
1624767315.1,286047002.4,N
1624767335.9,286047001.4,N
1624767355.7,286047001.9,N
1624767375.6,286047002.1,N
1624767395.4,286047002.2,N
1624767415.2,286047004.3,Y
1624767435.1,286047002.4,P
1624767436.0,286047002.4,P
1624767455.8,286047002.7,P
1624767475.6,286046999.7,N
1624767495.5,286047000.2,N
1624767515.3,286046999.8,N
1624767535.2,286047002.4,N
1624767555.9,286047002.6,N
1624767575.7,286046999.8,N
1624767595.6,286047000.3,N
1624767615.4,286047000.8,N
1624767635.2,286047000.9,N
1624767655.1,286047001.0,N
1624767656.0,286047001.0,N
1624767675.8,286047000.4,N
1624767695.7,286047002.5,N
1624767715.5,286047000.1,N
1624767735.3,286047002.2,N
1624767755.2,286047002.4,N
1624767775.0,286047002.6,N
1624767775.9,286047002.6,N
1624767795.7,286047000.4,N
1624767815.6,286047000.8,N
1624767835.4,286046998.1,N
1624767855.3,286047001.2,N
1624767875.1,286047000.7,N
1624767876.0,286047000.7,N
1624767895.8,286046998.1,N
1624767915.7,286047000.3,N
1624767935.5,286047000.9,N
1624767955.4,286047002.4,N
1624767975.2,286047001.9,N
1624767995.0,286047001.9,N
1624767995.9,286047001.9,N
1624768015.8,286047001.8,N
1624768035.6,286047001.9,N
1624768055.4,286047001.5,N
1624768075.3,286047001.2,N
1624768095.1,286047000.4,N
1624768115.9,286047002.3,N
1624768135.7,286047002.5,N
1624768155.5,286047001.9,N
1624768175.4,286047001.6,N
1624768195.2,286047001.6,N
1624768215.1,286047002.2,N
1624768216.0,286047002.2,N
1624768235.8,286046999.8,N
1624768255.6,286047000.1,N
1624768275.5,286047002.6,N
1624768295.3,286047002.7,N
1624768315.1,286047002.8,N
1624768335.9,286046999.9,N
1624768355.7,286047000.4,N
1624768375.6,286046999.9,N
1624768395.4,286046999.9,N
1624768415.2,286047002.4,N
1624768435.1,286047002.6,N
1624768436.0,286047002.6,N
1624768455.8,286047004.3,Y
1624768475.7,286047002.6,P
1624768495.5,286047002.4,P
1624768515.3,286047002.7,P
1624768535.2,286047002.0,Y
1624768555.0,286046998.4,P
1624768555.9,286046998.4,N
1624768575.8,286046996.9,N
1624768595.6,286046999.5,N
1624768615.4,286046996.6,N
1624768635.3,286046999.1,N
1624768655.1,286046998.9,N
1624768675.8,286046999.5,N
1624768695.7,286046999.6,N
1624768715.5,286046999.2,N
1624768735.4,286046997.7,N
1624768755.2,286046997.0,N
1624768775.0,286046997.7,N
1624768775.9,286046997.7,N
1624768795.8,286046997.5,N
1624768815.6,286046995.3,Y
1624768835.5,286046996.9,P
1624768855.3,286046996.9,P
1624768875.1,286046996.8,P
1624768895.9,286046996.9,Y
1624768915.7,286047001.0,P
1624768935.5,286046998.2,N
1624768955.4,286047000.7,N
1624768975.2,286046998.8,N
1624768995.1,286046999.4,N
1624768996.0,286046999.4,N
1624769015.8,286046999.4,N
1624769035.6,286046996.5,Y
1624769055.5,286046999.2,P
1624769075.3,286046998.9,P
1624769095.1,286046999.1,P
1624769115.9,286046999.4,Y
1624769135.7,286046998.2,P
1624769155.6,286046998.6,P
1624769175.4,286046999.0,N
1624769195.2,286046999.1,N
1624769215.1,286046999.5,N
1624769216.0,286046999.5,N
1624769235.8,286046996.9,Y
1624769255.6,286046998.8,P
1624769275.5,286046999.3,P
1624769295.3,286046999.5,N
1624769315.2,286046999.4,N
1624769335.9,286046998.4,Y
1624769355.7,286047001.1,P
1624769375.6,286047001.2,N
1624769395.4,286046998.4,N
1624769415.2,286046998.5,N
1624769435.1,286046998.8,N
1624769436.0,286046998.8,N
1624769455.8,286046998.6,N
1624769475.7,286046999.1,N
1624769495.5,286046997.1,N
1624769515.3,286046997.5,N
1624769535.2,286046995.3,Y
1624769555.0,286046999.4,P
1624769555.9,286046999.4,N
1624769575.8,286046999.3,P
1624769595.6,286046999.0,Y
1624769615.4,286047001.1,P
1624769635.3,286047001.0,N
1624769655.1,286047000.8,N
1624769675.8,286046998.6,N
1624769695.7,286047001.1,N
1624769715.5,286046998.3,N
1624769735.4,286046998.1,N
1624769755.2,286047000.9,N
1624769775.0,286047000.9,N
1624769775.9,286047000.9,N
1624769795.8,286046999.7,N
1624769815.6,286047000.4,N
1624769835.4,286047002.4,N
1624769855.3,286047002.6,N
1624769875.1,286047002.4,N
1624769895.9,286047000.1,N
1624769915.7,286046999.8,N
1624769935.5,286047002.5,N
1624769955.4,286047001.7,N
1624769975.2,286047002.1,N
1624769995.0,286047001.3,N
1624769995.9,286047001.3,N
